Hallock, MN

4:00 AM CDT on April 24, 2018 (GMT -0500)
Hallock Municipal

Weather History for KHCO - December, 2013

Change the Weather History Date:

Wednesday, December 18, 2013

  Actual Average Record
Temperature  
Mean Temperature 8 °F -  
Max Temperature 17 °F 16 °F 42 °F (2011)
Min Temperature -2 °F 0 °F -29 °F (1975)
Degree Days  
Heating Degree Days 58    
Moisture  
Dew Point 3 °F    
Average Humidity 76    
Maximum Humidity 85    
Minimum Humidity 67    
Precipitation  
Precipitation 0.00 in - - ()
Sea Level Pressure  
Sea Level Pressure 29.72 in    
Wind  
Wind Speed 15 mph (NE)    
Max Wind Speed 28 mph    
Max Gust Speed 36 mph    
Visibility 8 miles    
Events Snow    
Averages and records for this station are not official NWS values.
T = Trace of Precipitation, MM = Missing Value Source: NWS Daily Summary

Daily Weather History Graph

Daily Weather History Graph

Search for Another Location

Airport or City:

Astronomy

Dec. 18, 2013 Rise Set
Actual Time 8:16 AM CST 4:32 PM CST
Civil Twilight 7:39 AM CST 5:09 PM CST
Nautical Twilight 6:58 AM CST 5:50 PM CST
Astronomical Twilight 6:20 AM CST 6:28 PM CST
Moon 6:13 PM CST (12/18) 8:50 AM CST (12/18)
Length of Visible Light 9h 30m
Length of Day
8h 16m
Full, 98% of the Moon is Illuminated
Dec 18
Full
Dec 25
Last Quarter
Jan 1
New
Jan 7
First Quarter
Jan 15
Full

Hourly Weather History & Observations

Time (CST) Temp. Windchill Dew Point Humidity Pressure Visibility Wind Dir Wind Speed Gust Speed Precip Events Conditions
12:13 AM 3.2 °F -15.3 °F -0.4 °F 85% 29.85 in 10.0 mi SSE 15.0 mph - N/A   Overcast
12:33 AM 5.0 °F -13.6 °F -0.4 °F 78% 29.83 in 10.0 mi SSE 16.1 mph - N/A   Overcast
12:53 AM 6.8 °F -10.7 °F 1.4 °F 79% 29.82 in 10.0 mi SSE 15.0 mph - N/A   Mostly Cloudy
1:13 AM 6.8 °F -11.3 °F 1.4 °F 79% 29.80 in 10.0 mi SSE 16.1 mph - N/A   Mostly Cloudy
1:32 AM 6.8 °F -11.3 °F 1.4 °F 79% 29.78 in 10.0 mi SE 16.1 mph - N/A   Scattered Clouds
1:53 AM 8.6 °F -8.9 °F 1.4 °F 73% 29.76 in 10.0 mi SE 16.1 mph - N/A   Clear
2:13 AM 8.6 °F -10.0 °F 1.4 °F 73% 29.74 in 10.0 mi SE 18.4 mph - N/A   Clear
2:33 AM 10.4 °F -8.2 °F 3.2 °F 73% 29.72 in 10.0 mi SE 19.6 mph - N/A   Clear
2:53 AM 10.4 °F -5.4 °F 3.2 °F 73% 29.72 in 10.0 mi ESE 13.8 mph - N/A   Clear
3:13 AM 10.4 °F -4.8 °F 3.2 °F 73% 29.72 in 10.0 mi ESE 12.7 mph - N/A   Clear
3:33 AM 10.4 °F -4.8 °F 5.0 °F 79% 29.70 in 10.0 mi ESE 12.7 mph - N/A   Clear
3:53 AM 12.2 °F -2.5 °F 6.8 °F 79% 29.69 in 10.0 mi ESE 12.7 mph - N/A   Clear
4:13 AM 12.2 °F -4.8 °F 6.8 °F 79% 29.67 in 10.0 mi SE 17.3 mph - N/A   Clear
4:33 AM 12.2 °F -4.3 °F 6.8 °F 79% 29.66 in 10.0 mi ESE 16.1 mph - N/A   Clear
4:53 AM 12.2 °F -3.7 °F 6.8 °F 79% 29.64 in 10.0 mi ESE 15.0 mph - N/A   Clear
5:13 AM 12.2 °F -3.7 °F 6.8 °F 79% 29.62 in 10.0 mi SE 15.0 mph - N/A   Clear
5:33 AM 12.2 °F -4.8 °F 6.8 °F 79% 29.60 in 10.0 mi SE 17.3 mph - N/A   Clear
5:53 AM 12.2 °F -3.1 °F 6.8 °F 79% 29.61 in 10.0 mi SE 13.8 mph - N/A   Clear
6:13 AM 12.2 °F -1.8 °F 5.0 °F 73% 29.61 in 10.0 mi SE 11.5 mph - N/A   Clear
6:33 AM 10.4 °F -3.3 °F 3.2 °F 73% 29.59 in 10.0 mi SE 10.4 mph - N/A   Clear
6:53 AM 10.4 °F -1.5 °F 3.2 °F 73% 29.59 in 10.0 mi SE 8.1 mph - N/A   Clear
7:13 AM 12.2 °F -1.0 °F 5.0 °F 73% 29.58 in 10.0 mi SE 10.4 mph - N/A   Clear
7:33 AM 12.2 °F -1.0 °F 5.0 °F 73% 29.57 in 10.0 mi SE 10.4 mph - N/A   Clear
7:53 AM 12.2 °F -1.0 °F 5.0 °F 73% 29.57 in 10.0 mi SE 10.4 mph - N/A   Clear
8:13 AM 12.2 °F -0.2 °F 5.0 °F 73% 29.57 in 10.0 mi SE 9.2 mph - N/A   Clear
8:33 AM 12.2 °F -1.0 °F 5.0 °F 73% 29.56 in 10.0 mi SE 10.4 mph - N/A   Clear
8:53 AM 12.2 °F -0.2 °F 5.0 °F 73% 29.55 in 10.0 mi ESE 9.2 mph - N/A   Clear
9:13 AM 10.4 °F -2.4 °F 1.4 °F 67% 29.56 in 10.0 mi East 9.2 mph - N/A   Clear
9:33 AM 10.4 °F -2.4 °F 1.4 °F 67% 29.56 in 10.0 mi East 9.2 mph - N/A   Clear
9:53 AM 10.4 °F -0.4 °F 3.2 °F 73% 29.58 in 10.0 mi East 6.9 mph - N/A   Clear
10:13 AM 10.4 °F 2.2 °F 3.2 °F 73% 29.58 in 10.0 mi East 4.6 mph - N/A   Clear
10:33 AM 12.2 °F 1.7 °F 3.2 °F 67% 29.58 in 10.0 mi East 6.9 mph - N/A   Clear
10:53 AM 12.2 °F 2.9 °F 5.0 °F 73% 29.58 in 10.0 mi East 5.8 mph - N/A   Scattered Clouds
11:13 AM 14.0 °F 6.5 °F 6.8 °F 73% 29.58 in 10.0 mi East 4.6 mph - N/A   Scattered Clouds
11:33 AM 15.8 °F 7.2 °F 6.8 °F 68% 29.57 in 10.0 mi ESE 5.8 mph - N/A   Clear
11:53 AM 15.8 °F 7.2 °F 8.6 °F 73% 29.57 in 10.0 mi SSE 5.8 mph - N/A   Scattered Clouds
12:13 PM 15.8 °F 10.2 °F 8.6 °F 73% 29.58 in 10.0 mi South 3.5 mph - N/A   Scattered Clouds
12:33 PM 15.8 °F 10.2 °F 8.6 °F 73% 29.58 in 10.0 mi West 3.5 mph - N/A   Clear
12:53 PM 15.8 °F 7.2 °F 8.6 °F 73% 29.58 in 10.0 mi NW 5.8 mph - N/A   Scattered Clouds
1:13 PM 15.8 °F 7.2 °F 8.6 °F 73% 29.59 in 10.0 mi NNW 5.8 mph - N/A   Scattered Clouds
1:33 PM 17.6 °F 5.7 °F 10.4 °F 73% 29.59 in 10.0 mi NNW 10.4 mph - N/A   Scattered Clouds
1:53 PM 15.8 °F 1.4 °F 8.6 °F 73% 29.60 in 10.0 mi NNW 13.8 mph - N/A   Scattered Clouds
2:13 PM 15.8 °F 0.9 °F 8.6 °F 73% 29.62 in 10.0 mi NNW 15.0 mph - N/A   Scattered Clouds
2:34 PM 15.8 °F 1.4 °F 8.6 °F 73% 29.63 in 10.0 mi North 13.8 mph - N/A   Scattered Clouds
2:53 PM 14.0 °F -0.8 °F 8.6 °F 79% 29.63 in 10.0 mi North 13.8 mph - N/A   Mostly Cloudy
3:13 PM 14.0 °F -0.8 °F 8.6 °F 79% 29.64 in 10.0 mi North 13.8 mph - N/A   Mostly Cloudy
3:33 PM 12.2 °F -2.5 °F 6.8 °F 79% 29.68 in 10.0 mi NNW 12.7 mph - N/A   Overcast
3:53 PM 12.2 °F -4.8 °F 6.8 °F 79% 29.70 in 10.0 mi NNW 17.3 mph - N/A   Overcast
4:13 PM 10.4 °F -9.9 °F 6.8 °F 85% 29.72 in 4.0 mi NNW 24.2 mph 28.8 mph N/A   Haze
4:33 PM 10.4 °F -9.9 °F 5.0 °F 79% 29.74 in 1.8 mi NNW 24.2 mph 29.9 mph N/A   Haze
4:53 PM 10.4 °F -8.6 °F 5.0 °F 79% 29.76 in 2.0 mi NNW 20.7 mph 31.1 mph N/A Snow Light Snow
5:13 PM 8.6 °F -12.7 °F 3.2 °F 79% 29.77 in 3.0 mi NNW 25.3 mph 31.1 mph N/A   Haze
5:33 PM 8.6 °F -11.9 °F 3.2 °F 79% 29.78 in 4.0 mi North 23.0 mph 31.1 mph N/A   Haze
5:53 PM 8.6 °F -11.4 °F 3.2 °F 79% 29.79 in 4.0 mi North 21.9 mph 29.9 mph N/A   Haze
6:13 PM 8.6 °F -10.0 °F 3.2 °F 79% 29.82 in 5.0 mi NNW 18.4 mph - N/A   Haze
6:33 PM 8.6 °F -10.0 °F 5.0 °F 85% 29.83 in 1.8 mi NNW 18.4 mph - N/A Snow Light Snow
6:53 PM 8.6 °F -11.0 °F 3.2 °F 79% 29.85 in 2.5 mi NNW 20.7 mph 27.6 mph N/A Snow Light Snow
7:13 PM 8.6 °F -11.9 °F 3.2 °F 79% 29.86 in 2.0 mi NNW 23.0 mph - N/A   Haze
7:33 PM 6.8 °F -14.7 °F 3.2 °F 85% 29.88 in 1.2 mi NNW 24.2 mph 28.8 mph N/A   Overcast
7:53 PM 6.8 °F -15.9 °F 1.4 °F 79% 29.88 in 1.8 mi NNW 27.6 mph 35.7 mph N/A   Haze
8:14 PM 5.0 °F -16.7 °F -0.4 °F 78% 29.90 in 1.8 mi NNW 23.0 mph 34.5 mph N/A   Haze
8:33 PM 3.2 °F -20.7 °F -2.2 °F 78% 29.90 in 2.0 mi NNW 27.6 mph 35.7 mph N/A   Haze
8:53 PM 3.2 °F -19.0 °F -2.2 °F 78% 29.93 in 1.8 mi NNW 23.0 mph 31.1 mph N/A   Haze
9:14 PM 1.4 °F -21.9 °F -2.2 °F 85% 29.94 in 1.8 mi NNW 24.2 mph 29.9 mph N/A   Haze
9:33 PM 1.4 °F -21.0 °F -4.0 °F 78% 29.96 in 3.0 mi North 21.9 mph 31.1 mph N/A   Haze
9:53 PM 1.4 °F -21.0 °F -5.8 °F 72% 29.97 in 4.0 mi North 21.9 mph 27.6 mph N/A   Haze
10:14 PM -0.4 °F -22.3 °F -5.8 °F 78% 29.99 in 2.5 mi North 19.6 mph 25.3 mph N/A   Haze
10:33 PM -0.4 °F -21.7 °F -5.8 °F 78% 30.01 in 4.0 mi NNW 18.4 mph - N/A   Haze
10:53 PM -0.4 °F -22.3 °F -5.8 °F 78% 30.02 in 4.0 mi NNW 19.6 mph - N/A   Haze
11:13 PM -0.4 °F -22.3 °F -7.6 °F 72% 30.04 in 5.0 mi NNW 19.6 mph - N/A   Haze
11:33 PM -2.2 °F -25.7 °F -7.6 °F 78% 30.05 in 2.5 mi North 21.9 mph - N/A   Haze
11:53 PM -2.2 °F -25.7 °F -7.6 °F 78% 30.05 in 3.0 mi NNW 21.9 mph - N/A   Haze